Location: B
(0.0000°N, 0.0000°E)
Time: 19:58:46
(UTC+02:00)

ISS - All Passes

Search period start: 29 August 2016 00:00
Search period end: 08 September 2016 00:00
Orbit: 402 x 406 km, 51.6° (Epoch: 29 August)

Date Brightness Start Highest point End Pass type
(mag) Time Alt. Az. Time Alt. Az. Time Alt. Az.
29 Aug - 07:13:33 10° SW 07:16:44 51° NW 07:19:55 10° NNE visible
29 Aug - 18:47:17 10° NW 18:50:32 87° NE 18:53:48 10° SE daylight
30 Aug - 06:21:13 10° SSW 06:24:23 48° SE 06:27:32 10° NE visible
30 Aug - 17:55:19 10° N 17:58:09 28° NE 18:01:01 10° ESE daylight
31 Aug - 05:29:44 10° S 05:32:00 17° SE 05:34:16 10° E visible
31 Aug - 07:06:32 10° W 07:08:15 14° NW 07:09:59 10° NNW visible
31 Aug - 17:04:50 10° NE 17:05:46 11° NE 17:06:41 10° ENE daylight
31 Aug - 18:39:27 10° WNW 18:42:02 21° SW 18:44:37 10° S daylight
01 Sep - 06:12:50 10° WSW 06:15:52 35° NW 06:18:53 10° NNE visible
01 Sep - 17:46:25 10° NW 17:49:39 63° SW 17:52:52 10° SSE daylight
02 Sep - 05:20:14 10° SSW 05:23:29 71° SE 05:26:44 10° NE night (unlit)
02 Sep - 16:54:12 10° NNW 16:57:16 39° NE 17:00:21 10° SE daylight
03 Sep - 04:28:24 10° S 04:31:06 24° SE 04:33:48 10° ENE night (unlit)
03 Sep - 16:02:55 10° NNE 16:04:52 15° NE 16:06:49 10° E daylight
03 Sep - 17:39:02 10° W 17:41:07 16° SW 17:43:13 10° SSW daylight
04 Sep - 05:12:11 10° WSW 05:14:57 25° NW 05:17:42 10° N night (unlit)
04 Sep - 16:45:36 10° NW 16:48:43 42° SW 16:51:50 10° SSE daylight
05 Sep - 04:19:18 10° SW 04:22:33 77° WNW 04:25:48 10° NNE night (unlit)
05 Sep - 15:53:06 10° NNW 15:56:19 58° NE 15:59:31 10° SE daylight
06 Sep - 03:27:10 10° SSW 03:30:09 33° SE 03:33:07 10° ENE night (unlit)
06 Sep - 15:01:25 10° N 15:03:54 20° NE 15:06:24 10° ESE daylight
06 Sep - 16:38:55 10° WSW 16:40:10 12° SW 16:41:25 10° SSW daylight
07 Sep - 02:36:10 10° SSE 02:37:43 13° SE 02:39:16 10° E night (unlit)
07 Sep - 04:11:38 10° W 04:13:59 18° NW 04:16:20 10° N night (unlit)
07 Sep - 15:44:50 10° WNW 15:47:44 30° SW 15:50:39 10° S daylight
